Weather History for Liberal, KS

Change the Weather History Date:

Sunday, March 16, 2014

  Actual Average Record
Temperature  
Mean Temperature 39 °F -  
Max Temperature 48 °F 59 °F 86 °F (2012)
Min Temperature 30 °F 31 °F 14 °F (1960)
Degree Days  
Heating Degree Days 26    
Moisture  
Dew Point 21 °F    
Average Humidity 52    
Maximum Humidity 69    
Minimum Humidity 32    
Precipitation  
Precipitation 0.00 in - - ()
Sea Level Pressure  
Sea Level Pressure 30.20 in    
Wind  
Wind Speed 22 mph (North)    
Max Wind Speed 33 mph    
Max Gust Speed 40 mph    
Visibility 10 miles    
Events      
Averages and records for this station are not official NWS values.
T = Trace of Precipitation, MM = Missing Value Source: NWS Daily Summary

Daily Weather History Graph

Daily Weather History Graph

Search for Another Location

Airport:

Trip Planner

Search our weather history database for the weather conditions in past years. The results will help you decide how hot, cold, wet, or windy it might be!

Date:

Astronomy

Mar. 16, 2014 Rise Set
Actual Time 7:53 AM CDT 7:52 PM CDT
Civil Twilight 7:27 AM CDT 8:18 PM CDT
Nautical Twilight 6:57 AM CDT 8:48 PM CDT
Astronomical Twilight 6:26 AM CDT 9:18 PM CDT
Moon 8:10 PM CDT (3/16) 7:38 AM CDT (3/16)
Length of Visible Light 12h 50m
Length of Day
11h 58m
Full, 100% of the Moon is Illuminated
Mar 16
Full
Mar 16
Full
Mar 23
Last Quarter
Mar 30
New
Apr 7
First Quarter

Hourly Weather History & Observations

Time (CDT) Temp. Windchill Dew Point Humidity Pressure Visibility Wind Dir Wind Speed Gust Speed Precip Events Conditions
12:15 AM 42.8 °F 32.7 °F 30.2 °F 61% 30.13 in 10.0 mi North 27.6 mph 36.8 mph N/A   Clear
12:35 AM 42.8 °F 32.9 °F 28.4 °F 57% 30.14 in 10.0 mi North 26.5 mph 35.7 mph N/A   Clear
12:55 AM 42.8 °F 32.1 °F 28.4 °F 57% 30.15 in 10.0 mi North 31.1 mph 36.8 mph N/A   Clear
1:15 AM 41.0 °F 29.8 °F 28.4 °F 61% 30.16 in 10.0 mi North 29.9 mph 40.3 mph N/A   Clear
1:35 AM 39.2 °F 27.2 °F 26.6 °F 61% 30.17 in 10.0 mi North 31.1 mph 36.8 mph N/A   Mostly Cloudy
1:55 AM 39.2 °F 27.8 °F 24.8 °F 56% 30.17 in 10.0 mi North 27.6 mph 34.5 mph N/A   Mostly Cloudy
2:15 AM 37.4 °F 25.0 °F 21.2 °F 52% 30.18 in 10.0 mi North 29.9 mph 40.3 mph N/A   Partly Cloudy
2:35 AM 37.4 °F 25.2 °F 21.2 °F 52% 30.19 in 10.0 mi North 28.8 mph 33.4 mph N/A   Clear
2:55 AM 35.6 °F 22.7 °F 19.4 °F 52% 30.19 in 10.0 mi North 28.8 mph 33.4 mph N/A   Clear
3:15 AM 35.6 °F 22.3 °F 19.4 °F 52% 30.18 in 10.0 mi North 31.1 mph 35.7 mph N/A   Clear
3:35 AM 35.6 °F 23.2 °F 19.4 °F 52% 30.19 in 10.0 mi North 26.5 mph 35.7 mph N/A   Clear
3:55 AM 33.8 °F 20.3 °F 19.4 °F 56% 30.20 in 10.0 mi North 28.8 mph 35.7 mph N/A   Clear
4:15 AM 33.8 °F 20.8 °F 19.4 °F 56% 30.20 in 10.0 mi North 26.5 mph 33.4 mph N/A   Clear
4:35 AM 33.8 °F 21.0 °F 19.4 °F 56% 30.20 in 10.0 mi North 25.3 mph 29.9 mph N/A   Clear
4:55 AM 32.0 °F 19.2 °F 19.4 °F 60% 30.21 in 10.0 mi North 23.0 mph 31.1 mph N/A   Clear
5:15 AM 30.2 °F 16.8 °F 19.4 °F 64% 30.22 in 10.0 mi North 23.0 mph 27.6 mph N/A   Clear
5:35 AM 30.2 °F 16.8 °F 19.4 °F 64% 30.23 in 10.0 mi North 23.0 mph - N/A   Clear
5:55 AM 30.2 °F 17.1 °F 19.4 °F 64% 30.23 in 10.0 mi North 21.9 mph 29.9 mph N/A   Scattered Clouds
6:15 AM 30.2 °F 16.8 °F 19.4 °F 64% 30.24 in 10.0 mi North 23.0 mph 33.4 mph N/A   Partly Cloudy
6:35 AM 30.2 °F 17.8 °F 21.2 °F 69% 30.23 in 10.0 mi North 19.6 mph - N/A   Scattered Clouds
6:55 AM 30.2 °F 17.8 °F 21.2 °F 69% 30.24 in 10.0 mi North 19.6 mph 25.3 mph N/A   Mostly Cloudy
7:15 AM 30.2 °F 17.8 °F 21.2 °F 69% 30.24 in 10.0 mi North 19.6 mph - N/A   Mostly Cloudy
7:35 AM 30.2 °F 19.8 °F 21.2 °F 69% 30.25 in 10.0 mi NNW 13.8 mph - N/A   Overcast
7:55 AM 30.2 °F 19.8 °F 21.2 °F 69% 30.25 in 10.0 mi NNW 13.8 mph - N/A   Mostly Cloudy
8:15 AM 30.2 °F 15.9 °F 21.2 °F 69% 30.24 in 10.0 mi North 26.5 mph 29.9 mph N/A   Partly Cloudy
8:35 AM 33.8 °F 19.4 °F 23.0 °F 65% 30.25 in 10.0 mi North 33.4 mph 38.0 mph N/A   Partly Cloudy
8:55 AM 33.8 °F 19.9 °F 23.0 °F 65% 30.26 in 10.0 mi NNE 31.1 mph 38.0 mph N/A   Mostly Cloudy
9:15 AM 33.8 °F 20.1 °F 23.0 °F 65% 30.27 in 10.0 mi North 29.9 mph 34.5 mph N/A   Overcast
9:35 AM 35.6 °F 23.2 °F 24.8 °F 65% 30.28 in 10.0 mi North 26.5 mph 34.5 mph N/A   Overcast
9:55 AM 35.6 °F 22.7 °F 24.8 °F 65% 30.29 in 10.0 mi North 28.8 mph 35.7 mph N/A   Overcast
10:15 AM 35.6 °F 22.7 °F 23.0 °F 60% 30.30 in 10.0 mi North 28.8 mph 35.7 mph N/A   Overcast
10:35 AM 35.6 °F 23.0 °F 23.0 °F 60% 30.31 in 10.0 mi North 27.6 mph 33.4 mph N/A   Overcast
10:55 AM 35.6 °F 23.2 °F 23.0 °F 60% 30.32 in 10.0 mi NNE 26.5 mph 31.1 mph N/A   Overcast
11:15 AM 35.6 °F 23.0 °F 23.0 °F 60% 30.32 in 10.0 mi NNE 27.6 mph - N/A   Overcast
11:35 AM 35.6 °F 23.4 °F 23.0 °F 60% 30.33 in 10.0 mi North 25.3 mph 29.9 mph N/A   Overcast
11:55 AM 37.4 °F 26.9 °F 24.8 °F 60% 30.32 in 10.0 mi North 20.7 mph - N/A   Mostly Cloudy
12:15 PM 37.4 °F 26.6 °F 24.8 °F 60% 30.32 in 10.0 mi North 21.9 mph 28.8 mph N/A   Overcast
12:35 PM 39.2 °F 28.7 °F 24.8 °F 56% 30.31 in 10.0 mi North 23.0 mph 26.5 mph N/A   Overcast
12:55 PM 39.2 °F 29.6 °F 24.8 °F 56% 30.30 in 10.0 mi NNE 19.6 mph 27.6 mph N/A   Overcast
1:15 PM 41.0 °F 33.1 °F 24.8 °F 53% 30.29 in 10.0 mi North 15.0 mph 25.3 mph N/A   Overcast
1:35 PM 42.8 °F 34.5 °F 24.8 °F 49% 30.28 in 10.0 mi North 18.4 mph 24.2 mph N/A   Overcast
1:55 PM 42.8 °F 35.8 °F 24.8 °F 49% 30.27 in 10.0 mi North 13.8 mph 23.0 mph N/A   Overcast
2:15 PM 44.6 °F 37.2 °F 24.8 °F 46% 30.26 in 10.0 mi North 17.3 mph 24.2 mph N/A   Mostly Cloudy
2:35 PM 44.6 °F 38.8 °F 24.8 °F 46% 30.24 in 10.0 mi North 11.5 mph 24.2 mph N/A   Partly Cloudy
2:55 PM 46.4 °F 39.5 °F 24.8 °F 43% 30.23 in 10.0 mi North 17.3 mph 25.3 mph N/A   Clear
3:15 PM 46.4 °F 40.1 °F 24.8 °F 43% 30.21 in 10.0 mi North 15.0 mph 18.4 mph N/A   Clear
3:35 PM 46.4 °F 40.4 °F 24.8 °F 43% 30.20 in 10.0 mi North 13.8 mph 20.7 mph N/A   Clear
3:55 PM 48.2 °F - 24.8 °F 40% 30.19 in 10.0 mi NNE 17.3 mph 23.0 mph N/A   Clear
4:15 PM 48.2 °F - 23.0 °F 37% 30.19 in 10.0 mi North 11.5 mph 24.2 mph N/A   Clear
4:35 PM 48.2 °F - 23.0 °F 37% 30.18 in 10.0 mi NNW 17.3 mph 23.0 mph N/A   Clear
4:55 PM 48.2 °F - 21.2 °F 34% 30.17 in 10.0 mi North 13.8 mph 18.4 mph N/A   Clear
5:15 PM 48.2 °F - 21.2 °F 34% 30.16 in 10.0 mi North 17.3 mph - N/A   Clear
5:35 PM 48.2 °F - 21.2 °F 34% 30.15 in 10.0 mi NNE 12.7 mph 19.6 mph N/A   Clear
5:55 PM 48.2 °F - 21.2 °F 34% 30.15 in 10.0 mi North 12.7 mph 18.4 mph N/A   Clear
6:15 PM 48.2 °F - 21.2 °F 34% 30.15 in 10.0 mi NNE 12.7 mph 18.4 mph N/A   Clear
6:35 PM 48.2 °F - 19.4 °F 32% 30.14 in 10.0 mi NNE 8.1 mph - N/A   Clear
6:55 PM 48.2 °F - 19.4 °F 32% 30.14 in 10.0 mi North 6.9 mph - N/A   Clear
7:15 PM 46.4 °F 40.7 °F 19.4 °F 34% 30.14 in 10.0 mi North 12.7 mph - N/A   Clear
7:35 PM 46.4 °F 43.5 °F 17.6 °F 32% 30.13 in 10.0 mi NNE 5.8 mph - N/A   Clear
7:55 PM 42.8 °F 38.0 °F 15.8 °F 34% 30.14 in 10.0 mi North 8.1 mph - N/A   Clear
8:15 PM 39.2 °F 35.9 °F 15.8 °F 39% 30.14 in 10.0 mi North 4.6 mph - N/A   Clear
8:35 PM 37.4 °F - 14.0 °F 38% 30.13 in 10.0 mi Calm Calm - N/A   Clear
8:55 PM 37.4 °F - 15.8 °F 41% 30.12 in 10.0 mi Calm Calm - N/A   Clear
9:15 PM 35.6 °F - 14.0 °F 41% 30.12 in 10.0 mi Calm Calm - N/A   Clear
9:35 PM 35.6 °F - 14.0 °F 41% 30.13 in 10.0 mi Calm Calm - N/A   Clear
9:55 PM 30.2 °F 26.7 °F 12.2 °F 47% 30.11 in 10.0 mi SW 3.5 mph - N/A   Clear
10:15 PM 30.2 °F 26.7 °F 15.8 °F 55% 30.11 in 10.0 mi South 3.5 mph - N/A   Clear
10:35 PM 33.8 °F 27.7 °F 17.6 °F 52% 30.10 in 10.0 mi South 6.9 mph - N/A   Clear
10:55 PM 30.2 °F 23.4 °F 14.0 °F 51% 30.10 in 10.0 mi South 6.9 mph - N/A   Clear
11:15 PM 30.2 °F 23.4 °F 15.8 °F 55% 30.10 in 10.0 mi SSW 6.9 mph - N/A   Clear
11:35 PM 30.2 °F 23.4 °F 15.8 °F 55% 30.10 in 10.0 mi SSW 6.9 mph - N/A   Clear
11:55 PM 30.2 °F 22.6 °F 14.0 °F 51% 30.08 in 10.0 mi SSW 8.1 mph - N/A   Clear